Regional Weather Roundup
Issued by NWS Newport/Morehead, NC

Current Version | Previous Version | Graphics & Text | Print | Product List | Glossary Off
Versions: 1 2 3 4 5 6 7 8 9 10 11 12 13 14 15 16 17 18 19 20 21 22 23 24 25 26 27 28 29 30 31 32 33 34 35 36 37 38 39 40 41 42 43 44 45 46 47 48 49 50

981
ASUS42 KMHX 250013
RWRMHX
WEATHER ROUNDUP FOR EASTERN NORTH CAROLINA
NATIONAL WEATHER SERVICE NEWPORT/MOREHEAD CITY NC
700 PM EST SAT FEB 24 2018

NOTE: "FAIR" INDICATES FEW OR NO CLOUDS BELOW 12,000 FEET
WITH NO SIGNIFICANT WEATHER AND/OR OBSTRUCTIONS TO VISIBILITY

NCZ015>017-031-032-045>047-102-103-250100-
NORTH COAST

CITY           SKY/WX    TMP DP  RH WIND       PRES   REMARKS
EDENTON        FAIR      69  60  74 S3        30.10S
ELIZABETH CITY FAIR      68  61  78 S5        30.09S
KITTY HAWK     FAIR      66  64  95 S3        30.10R
MANTEO         FAIR      64  61  90 S9        30.12R

$$

NCZ045>047-081-094-103-104-250100-
CENTRAL COAST

CITY           SKY/WX    TMP DP  RH WIND       PRES   REMARKS
FRISCO         FAIR      65  63  93 SW8       30.14S

$$

NCZ095-097-098-100-101-250100-
SOUTHERN COAST

CITY           SKY/WX    TMP DP  RH WIND       PRES   REMARKS
BEAUFORT       FAIR      65  62  90 SW12      30.14S
CEDAR ISLAND   NOT AVBL
JACKSONVILLE   FAIR      68  63  84 S9        30.12R
PINEY ISLAND   NOT AVBL
WILMINGTON     FAIR      69  64  84 S9G20     30.14R


$$

NCZ011>013-027>030-043-044-078>080-089-090>093-098-250100-
COASTAL PLAIN

CITY           SKY/WX    TMP DP  RH WIND       PRES   REMARKS
AHOSKIE        FAIR      67  59  75 S3        30.09R
CLINTON        FAIR      72  61  69 S3        30.11R
ELIZABETHTOWN  NOT AVBL
GOLDSBORO      FAIR      72  59  63 S5        30.08R
GREENVILLE     FAIR      70  57  64 CALM      30.11S
HAVELOCK       NOT AVBL
KENANSVILLE    FAIR      70  59  68 S3        30.12R
KINSTON        FAIR      68  59  73 CALM      30.11R
NEW BERN       FAIR      67  62  84 S7        30.13R
RICHLANDS      FAIR      70  62  76 S12       30.13R
ROCKY MOUNT    FAIR      66  59  78 S3        30.08S
WASHINGTON     FAIR      67  58  73 CALM      30.11R
WHITEVILLE     FAIR      70  63  77 S6        30.12R

$$

AMZ130-135-150-152-154-156-158-170-250-252-270-ANZ085-086-088-633-658-670-250100-
MARINE OBSERVATIONS

STATION/POSITION TIME  TEMP    WIND        PRES    WAVE   SWELL
                       AIR SEA DIR/SP/G            HT/PER HT/PER
                 (UTC) (F)     (DEG/KT/KT) (MB)    (FT/S) (FT/S)
CHESAPEAKE LIGHT NOT AVBL
64 E VA BEACH    2350   54 51  210/ 10/ 12 1019.7    3/ 9   3/ 9
DUCK             2348   67 47  170/  6/  8 1018.8
2 E DUCK         0000      48                N/A     2/ 9   2/11
OREGON INLET     2348          190/ 13/ 15   N/A
13E OREGON INLT  2348      49                N/A     4/11   3/11
HATTERAS CG      2348   65 61  220/  8/ 11 1020.3
DIAMOND BUOY     2350   72 74  230/ 17/ 21 1021.1    4/ 9   3/ 9
CAPE LOOKOUT     0000          210/ 10/ 12 1021.0
BEAUFORT LAB     2348   64 60  210/  9/ 12 1020.5
30 SE NEW RVR IN 2308   71 70  210/ 10/ 14 1021.1
30 SE NEW RVR IN 0000      69                N/A     4/ 9   2/11
27 SE WRIGHTSVLE 2308   69 69  200/ 14/ 17 1021.1
5 SE WRIGHTSVLE  2308   62 59  220/  6/ 10 1020.5
225 S CAPE HAT   2350   72 73  200/  8/ 12 1023.7    6/ 9   5/ 9
41 SE CHARLESTON 2350   70 70  190/  8/ 10 1021.1    4/ 9   3/ 9

$$




USA.gov is the U.S. government's official web portal to all federal, state and local government web resources and services.